Meteógrafos Informações Meteorológicas em tempo real
Aeroporto de Petrolina
15-12-2019 22:56

Temperatura atual: 29 graus 84 F    Umidade relativa: 48 %
Velocidade do vento: 14 nós 25 Km/h    Direção: 150 graus SSE
Ajuste do altímetro ..: 1014 HPA
Visibilidade: Ótima    Tempo presente: Céu Limpo

Observação
Data Hora BRTTempo°CUmidadePressãoVentoVisib.
15/12 - 22:56   Céu Limpo 29° 48% 1014 Sul-sudeste/25 km/h OK
15/12 - 21:56   Céu Limpo 30° 45% 1013 Sudeste/12 km/h OK
15/12 - 20:56   Céu Limpo 31° 31% 1012 Sudeste/9 km/h OK
15/12 - 19:56   Céu Limpo 32° 29% 1012 Sudeste/12 km/h OK
15/12 - 18:56   Não Disponível 33° 28% 1011 Sul-sudeste/19 km/h OK
15/12 - 17:55   Não Disponível 34° 24% 1011 Sul-sudeste/18 km/h OK
15/12 - 16:56   Poucas nuvens esparsas 34° 30% 1011 Sudeste/23 km/h OK
15/12 - 15:56   Poucas nuvens esparsas 34° 36% 1011 Sudeste/19 km/h OK
15/12 - 14:56   Parcialmente Nublado 33° 41% 1012 Sudeste/14 km/h OK
15/12 - 13:56   Poucas nuvens esparsas 32° 43% 1013 Sul-sudeste/18 km/h OK
15/12 - 12:56   Nuvens esparsas 31° 52% 1014 Sul/25 km/h OK
15/12 - 11:56   Nuvens esparsas 30° 55% 1015 Este-sudeste/25 km/h OK
15/12 - 10:56   Poucas nuvens esparsas 28° 61% 1016 Sul-sudeste/21 km/h OK
15/12 - 09:56   Parcialmente Nublado 29° 58% 1016 Este-sudeste/19 km/h OK
15/12 - 08:56   Não Disponível 28° 61% 1015 Sudeste/23 km/h OK
15/12 - 07:56   Não Disponível 26° 69% 1015 Sul-sudeste/18 km/h OK
15/12 - 06:56   Não Disponível 25° 73% 1014 Sul/16 km/h OK
15/12 - 05:56   Não Disponível 24° 78% 1014 Sul/14 km/h OK
15/12 - 04:56   Não Disponível 24° 78% 1013 Sul-sudeste/19 km/h OK
15/12 - 03:56   Não Disponível 25° 73% 1013 Sul-sudeste/23 km/h OK
15/12 - 02:56   Não Disponível 26° 69% 1013 Sul-sudeste/18 km/h OK
15/12 - 01:56   Céu Limpo 27° 65% 1013 Sul-sudeste/25 km/h OK
15/12 - 00:56   Céu Limpo 28° 58% 1014 Sul-sudeste/27 km/h OK
14/12 - 23:56   Céu Limpo 29° 51% 1014 Sul-sudeste/21 km/h OK

Termo de Uso  |   Links Úteis  |   Imprensa  |  Anuncie  |  Fale Conosco  |  Versão Celular  |   Política de Privacidade

Apolo11.com - Todos os direitos reservados - 2000 - 2019

"Existem velas que iluminam tudo, menos o próprio candelabro" - Hebbel